Вернуться в каталог

USA 130

АктивенВоенныеGEO
NORAD 24737·PAYLOAD·🇺🇸 United States

Запущен Feb 23, 1997 с Cape Canaveral Space Force Station

Loading…

TLE

СвежийSource: Space-Track

Эпоха: Sep 13, 2026, 17:46 UTC

1 24737U 97008A   26256.74094789 -.00000155  00000-0  00000-0 0  9998
2 24737  14.4684   3.1520 0010698 316.7403  46.6199  0.99028814 19692

Отслеживайте USA 130 в реальном времени с AllMySat

Download on the App Store